﻿測定場所 (Monitoring sites),日付 (Measurement date),時間 (Measurement time),線量率 最大値 (max) μGy/h,線量率 最小値 (min) μGy/h,線量率 平均値 (average) μGy/h,
大田 (Ota),2020-02-02,23:01～24:00,0.0353,0.0317,0.0334,
大田 (Ota),2020-02-02,22:01～23:00,0.0358,0.0318,0.0338,
大田 (Ota),2020-02-02,21:01～22:00,0.0353,0.0310,0.0336,
大田 (Ota),2020-02-02,20:01～21:00,0.0361,0.0317,0.0335,
大田 (Ota),2020-02-02,19:01～20:00,0.0353,0.0316,0.0333,
大田 (Ota),2020-02-02,18:01～19:00,0.0353,0.0319,0.0337,
大田 (Ota),2020-02-02,17:01～18:00,0.0361,0.0309,0.0335,
大田 (Ota),2020-02-02,16:01～17:00,0.0354,0.0317,0.0335,
大田 (Ota),2020-02-02,15:01～16:00,0.0350,0.0309,0.0334,
大田 (Ota),2020-02-02,14:01～15:00,0.0361,0.0316,0.0338,
大田 (Ota),2020-02-02,13:01～14:00,0.0363,0.0325,0.0342,
大田 (Ota),2020-02-02,12:01～13:00,0.0367,0.0321,0.0340,
大田 (Ota),2020-02-02,11:01～12:00,0.0360,0.0323,0.0340,
大田 (Ota),2020-02-02,10:01～11:00,0.0361,0.0323,0.0342,
大田 (Ota),2020-02-02,09:01～10:00,0.0365,0.0316,0.0339,
大田 (Ota),2020-02-02,08:01～09:00,0.0356,0.0312,0.0336,
大田 (Ota),2020-02-02,07:01～08:00,0.0353,0.0315,0.0334,
大田 (Ota),2020-02-02,06:01～07:00,0.0348,0.0314,0.0332,
大田 (Ota),2020-02-02,05:01～06:00,0.0350,0.0318,0.0332,
大田 (Ota),2020-02-02,04:01～05:00,0.0349,0.0311,0.0332,
大田 (Ota),2020-02-02,03:01～04:00,0.0360,0.0316,0.0334,
大田 (Ota),2020-02-02,02:01～03:00,0.0347,0.0311,0.0332,
大田 (Ota),2020-02-02,01:01～02:00,0.0350,0.0307,0.0333,
大田 (Ota),2020-02-02,00:01～01:00,0.0355,0.0315,0.0333,
大田 (Ota),2020-02-01,23:01～24:00,0.0355,0.0311,0.0333,
大田 (Ota),2020-02-01,22:01～23:00,0.0349,0.0316,0.0334,
大田 (Ota),2020-02-01,21:01～22:00,0.0352,0.0317,0.0332,
大田 (Ota),2020-02-01,20:01～21:00,0.0366,0.0308,0.0333,
大田 (Ota),2020-02-01,19:01～20:00,0.0350,0.0317,0.0333,
大田 (Ota),2020-02-01,18:01～19:00,0.0357,0.0313,0.0335,
大田 (Ota),2020-02-01,17:01～18:00,0.0353,0.0314,0.0332,
大田 (Ota),2020-02-01,16:01～17:00,0.0361,0.0314,0.0335,
大田 (Ota),2020-02-01,15:01～16:00,0.0353,0.0316,0.0334,
大田 (Ota),2020-02-01,14:01～15:00,0.0369,0.0316,0.0336,
大田 (Ota),2020-02-01,13:01～14:00,0.0360,0.0317,0.0339,
大田 (Ota),2020-02-01,12:01～13:00,0.0353,0.0313,0.0335,
大田 (Ota),2020-02-01,11:01～12:00,0.0361,0.0314,0.0337,
大田 (Ota),2020-02-01,10:01～11:00,0.0362,0.0317,0.0337,
大田 (Ota),2020-02-01,09:01～10:00,0.0356,0.0317,0.0336,
大田 (Ota),2020-02-01,08:01～09:00,0.0362,0.0315,0.0337,
大田 (Ota),2020-02-01,07:01～08:00,0.0357,0.0310,0.0333,
大田 (Ota),2020-02-01,06:01～07:00,0.0352,0.0312,0.0334,
大田 (Ota),2020-02-01,05:01～06:00,0.0351,0.0311,0.0333,
大田 (Ota),2020-02-01,04:01～05:00,0.0357,0.0319,0.0338,
大田 (Ota),2020-02-01,03:01～04:00,0.0355,0.0309,0.0334,
大田 (Ota),2020-02-01,02:01～03:00,0.0361,0.0321,0.0339,
大田 (Ota),2020-02-01,01:01～02:00,0.0368,0.0311,0.0339,
大田 (Ota),2020-02-01,00:01～01:00,0.0361,0.0314,0.0337,
大田 (Ota),2020-01-31,23:01～24:00,0.0363,0.0316,0.0339,
大田 (Ota),2020-01-31,22:01～23:00,0.0357,0.0316,0.0339,
大田 (Ota),2020-01-31,21:01～22:00,0.0358,0.0316,0.0339,
大田 (Ota),2020-01-31,20:01～21:00,0.0365,0.0322,0.0341,
大田 (Ota),2020-01-31,19:01～20:00,0.0358,0.0304,0.0336,
大田 (Ota),2020-01-31,18:01～19:00,0.0363,0.0320,0.0339,
大田 (Ota),2020-01-31,17:01～18:00,0.0357,0.0312,0.0337,
大田 (Ota),2020-01-31,16:01～17:00,0.0367,0.0318,0.0338,
大田 (Ota),2020-01-31,15:01～16:00,0.0363,0.0316,0.0336,
大田 (Ota),2020-01-31,14:01～15:00,0.0353,0.0314,0.0333,
大田 (Ota),2020-01-31,13:01～14:00,0.0364,0.0314,0.0334,
大田 (Ota),2020-01-31,12:01～13:00,0.0355,0.0312,0.0334,
大田 (Ota),2020-01-31,11:01～12:00,0.0356,0.0309,0.0334,
大田 (Ota),2020-01-31,10:01～11:00,0.0348,0.0310,0.0330,
大田 (Ota),2020-01-31,09:01～10:00,0.0362,0.0313,0.0337,
大田 (Ota),2020-01-31,08:01～09:00,0.0363,0.0313,0.0336,
大田 (Ota),2020-01-31,07:01～08:00,0.0355,0.0310,0.0334,
大田 (Ota),2020-01-31,06:01～07:00,0.0356,0.0323,0.0339,
大田 (Ota),2020-01-31,05:01～06:00,0.0354,0.0317,0.0336,
大田 (Ota),2020-01-31,04:01～05:00,0.0359,0.0308,0.0338,
大田 (Ota),2020-01-31,03:01～04:00,0.0363,0.0322,0.0338,
大田 (Ota),2020-01-31,02:01～03:00,0.0352,0.0310,0.0335,
大田 (Ota),2020-01-31,01:01～02:00,0.0363,0.0306,0.0331,
大田 (Ota),2020-01-31,00:01～01:00,0.0354,0.0314,0.0334,
大田 (Ota),2020-01-30,23:01～24:00,0.0353,0.0309,0.0332,
大田 (Ota),2020-01-30,22:01～23:00,0.0347,0.0309,0.0329,
大田 (Ota),2020-01-30,21:01～22:00,0.0350,0.0313,0.0333,
大田 (Ota),2020-01-30,20:01～21:00,0.0351,0.0306,0.0331,
大田 (Ota),2020-01-30,19:01～20:00,0.0356,0.0311,0.0332,
大田 (Ota),2020-01-30,18:01～19:00,0.0355,0.0316,0.0336,
大田 (Ota),2020-01-30,17:01～18:00,0.0356,0.0309,0.0335,
大田 (Ota),2020-01-30,16:01～17:00,0.0356,0.0317,0.0337,
大田 (Ota),2020-01-30,15:01～16:00,0.0353,0.0321,0.0336,
大田 (Ota),2020-01-30,14:01～15:00,0.0359,0.0317,0.0337,
大田 (Ota),2020-01-30,13:01～14:00,0.0354,0.0317,0.0336,
大田 (Ota),2020-01-30,12:01～13:00,0.0353,0.0318,0.0337,
大田 (Ota),2020-01-30,11:01～12:00,0.0358,0.0313,0.0337,
大田 (Ota),2020-01-30,10:01～11:00,0.0359,0.0320,0.0339,
大田 (Ota),2020-01-30,09:01～10:00,0.0358,0.0319,0.0340,
大田 (Ota),2020-01-30,08:01～09:00,0.0361,0.0316,0.0336,
大田 (Ota),2020-01-30,07:01～08:00,0.0356,0.0314,0.0335,
大田 (Ota),2020-01-30,06:01～07:00,0.0357,0.0316,0.0336,
大田 (Ota),2020-01-30,05:01～06:00,0.0351,0.0310,0.0335,
大田 (Ota),2020-01-30,04:01～05:00,0.0354,0.0309,0.0334,
大田 (Ota),2020-01-30,03:01～04:00,0.0355,0.0319,0.0333,
大田 (Ota),2020-01-30,02:01～03:00,0.0356,0.0311,0.0333,
大田 (Ota),2020-01-30,01:01～02:00,0.0351,0.0308,0.0331,
大田 (Ota),2020-01-30,00:01～01:00,0.0356,0.0309,0.0336,
大田 (Ota),2020-01-29,23:01～24:00,0.0358,0.0314,0.0333,
大田 (Ota),2020-01-29,22:01～23:00,0.0350,0.0308,0.0333,
大田 (Ota),2020-01-29,21:01～22:00,0.0356,0.0312,0.0333,
大田 (Ota),2020-01-29,20:01～21:00,0.0368,0.0306,0.0334,
大田 (Ota),2020-01-29,19:01～20:00,0.0363,0.0314,0.0335,
大田 (Ota),2020-01-29,18:01～19:00,0.0360,0.0313,0.0330,
大田 (Ota),2020-01-29,17:01～18:00,0.0348,0.0309,0.0330,
大田 (Ota),2020-01-29,16:01～17:00,0.0363,0.0316,0.0337,
大田 (Ota),2020-01-29,15:01～16:00,0.0350,0.0303,0.0329,
大田 (Ota),2020-01-29,14:01～15:00,0.0352,0.0310,0.0331,
大田 (Ota),2020-01-29,13:01～14:00,0.0351,0.0311,0.0334,
大田 (Ota),2020-01-29,12:01～13:00,0.0364,0.0302,0.0331,
大田 (Ota),2020-01-29,11:01～12:00,0.0354,0.0313,0.0333,
大田 (Ota),2020-01-29,10:01～11:00,0.0355,0.0310,0.0330,
大田 (Ota),2020-01-29,09:01～10:00,0.0354,0.0312,0.0335,
大田 (Ota),2020-01-29,08:01～09:00,0.0360,0.0315,0.0333,
大田 (Ota),2020-01-29,07:01～08:00,0.0352,0.0320,0.0336,
大田 (Ota),2020-01-29,06:01～07:00,0.0355,0.0311,0.0334,
大田 (Ota),2020-01-29,05:01～06:00,0.0362,0.0314,0.0339,
大田 (Ota),2020-01-29,04:01～05:00,0.0411,0.0329,0.0356,
大田 (Ota),2020-01-29,03:01～04:00,0.0446,0.0360,0.0401,
大田 (Ota),2020-01-29,02:01～03:00,0.0483,0.0403,0.0444,
大田 (Ota),2020-01-29,01:01～02:00,0.0490,0.0401,0.0445,
大田 (Ota),2020-01-29,00:01～01:00,0.0480,0.0416,0.0439,
大田 (Ota),2020-01-28,23:01～24:00,0.0476,0.0405,0.0442,
大田 (Ota),2020-01-28,22:01～23:00,0.0488,0.0418,0.0446,
大田 (Ota),2020-01-28,21:01～22:00,0.0499,0.0414,0.0459,
大田 (Ota),2020-01-28,20:01～21:00,0.0468,0.0380,0.0425,
大田 (Ota),2020-01-28,19:01～20:00,0.0437,0.0375,0.0407,
大田 (Ota),2020-01-28,18:01～19:00,0.0431,0.0357,0.0393,
大田 (Ota),2020-01-28,17:01～18:00,0.0424,0.0358,0.0388,
大田 (Ota),2020-01-28,16:01～17:00,0.0406,0.0356,0.0384,
大田 (Ota),2020-01-28,15:01～16:00,0.0422,0.0363,0.0394,
大田 (Ota),2020-01-28,14:01～15:00,0.0455,0.0375,0.0409,
大田 (Ota),2020-01-28,13:01～14:00,0.0433,0.0340,0.0381,
大田 (Ota),2020-01-28,12:01～13:00,0.0399,0.0339,0.0363,
大田 (Ota),2020-01-28,11:01～12:00,0.0409,0.0339,0.0366,
大田 (Ota),2020-01-28,10:01～11:00,0.0433,0.0366,0.0397,
大田 (Ota),2020-01-28,09:01～10:00,0.0450,0.0375,0.0416,
大田 (Ota),2020-01-28,08:01～09:00,0.0440,0.0355,0.0399,
大田 (Ota),2020-01-28,07:01～08:00,0.0428,0.0366,0.0394,
大田 (Ota),2020-01-28,06:01～07:00,0.0418,0.0357,0.0379,
大田 (Ota),2020-01-28,05:01～06:00,0.0417,0.0366,0.0386,
大田 (Ota),2020-01-28,04:01～05:00,0.0440,0.0371,0.0406,
大田 (Ota),2020-01-28,03:01～04:00,0.0465,0.0367,0.0411,
大田 (Ota),2020-01-28,02:01～03:00,0.0469,0.0372,0.0426,
大田 (Ota),2020-01-28,01:01～02:00,0.0458,0.0342,0.0381,
大田 (Ota),2020-01-28,00:01～01:00,0.0461,0.0376,0.0425,
大田 (Ota),2020-01-27,23:01～24:00,0.0455,0.0372,0.0406,
大田 (Ota),2020-01-27,22:01～23:00,0.0447,0.0377,0.0412,
大田 (Ota),2020-01-27,21:01～22:00,0.0432,0.0359,0.0397,
大田 (Ota),2020-01-27,20:01～21:00,0.0417,0.0360,0.0384,
大田 (Ota),2020-01-27,19:01～20:00,0.0402,0.0317,0.0359,
大田 (Ota),2020-01-27,18:01～19:00,0.0365,0.0313,0.0343,
大田 (Ota),2020-01-27,17:01～18:00,0.0353,0.0313,0.0337,
大田 (Ota),2020-01-27,16:01～17:00,0.0351,0.0312,0.0332,
大田 (Ota),2020-01-27,15:01～16:00,0.0351,0.0318,0.0333,
大田 (Ota),2020-01-27,14:01～15:00,0.0355,0.0311,0.0334,
大田 (Ota),2020-01-27,13:01～14:00,0.0362,0.0306,0.0336,
大田 (Ota),2020-01-27,12:01～13:00,0.0363,0.0319,0.0338,
大田 (Ota),2020-01-27,11:01～12:00,0.0351,0.0317,0.0336,
大田 (Ota),2020-01-27,10:01～11:00,0.0360,0.0307,0.0335,
大田 (Ota),2020-01-27,09:01～10:00,0.0353,0.0316,0.0334,
大田 (Ota),2020-01-27,08:01～09:00,0.0357,0.0309,0.0334,
大田 (Ota),2020-01-27,07:01～08:00,0.0360,0.0309,0.0335,
大田 (Ota),2020-01-27,06:01～07:00,0.0354,0.0316,0.0334,
大田 (Ota),2020-01-27,05:01～06:00,0.0353,0.0314,0.0336,
大田 (Ota),2020-01-27,04:01～05:00,0.0354,0.0318,0.0335,
大田 (Ota),2020-01-27,03:01～04:00,0.0352,0.0314,0.0333,
大田 (Ota),2020-01-27,02:01～03:00,0.0353,0.0314,0.0334,
大田 (Ota),2020-01-27,01:01～02:00,0.0348,0.0314,0.0330,
大田 (Ota),2020-01-27,00:01～01:00,0.0357,0.0309,0.0332,
